Weather History for KOPM - November, 2013

Change the Weather History Date:

Tuesday, November 19, 2013

  Actual Average Record
Temperature  
Mean Temperature 74 °F -  
Max Temperature 77 °F - - ()
Min Temperature 71 °F - - ()
Cooling Degree Days 9    
Growing Degree Days 24 (Base 50)    
Moisture  
Dew Point 71 °F    
Average Humidity 86    
Maximum Humidity 94    
Minimum Humidity 83    
Precipitation  
Precipitation 0.00 in - - ()
Sea Level Pressure  
Sea Level Pressure 29.95 in    
Wind  
Wind Speed 16 mph (NE)    
Max Wind Speed 30 mph    
Max Gust Speed 30 mph    
Visibility 8 miles    
Events      
T = Trace of Precipitation, MM = Missing Value Source: NWS Daily Summary

Daily Weather History Graph

Daily Weather History Graph

Search for Another Location

Airport or City:

Trip Planner

Search our weather history database for the weather conditions in past years. The results will help you decide how hot, cold, wet, or windy it might be!

Date:

Astronomy

Nov. 19, 2013 Rise Set
Actual Time 6:50 AM CST 5:35 PM CST
Civil Twilight 6:25 AM CST 6:00 PM CST
Nautical Twilight 5:57 AM CST 6:28 PM CST
Astronomical Twilight 5:29 AM CST 6:56 PM CST
Moon 7:29 PM CST (11/19) 8:29 AM CST (11/19)
Length of Visible Light 11h 34m
Length of Day
10h 45m
Waning Gibbous, 96% of the Moon is Illuminated
Nov 19
Waning Gibbous
Nov 25
Last Quarter
Dec 2
New
Dec 9
First Quarter
Dec 17
Full

Hourly Weather History & Observations

Time (CST) Temp. Dew Point Humidity Pressure Visibility Wind Dir Wind Speed Gust Speed Precip Events Conditions
12:15 AM 77.0 °F 73.4 °F 89% 29.97 in 5.0 mi WNW 4.6 mph - N/A   Mostly Cloudy
12:35 AM 77.0 °F 73.4 °F 89% 29.98 in 4.0 mi Variable 4.6 mph 12.7 mph N/A   Overcast
12:45 AM 75.2 °F 71.6 °F 89% 29.96 in 2.0 mi North 9.2 mph 16.1 mph N/A   Overcast
1:35 AM 71.6 °F 69.8 °F 94% 29.96 in 1.0 mi NNE 17.3 mph - N/A   Overcast
1:55 AM 73.4 °F 71.6 °F 94% 29.96 in 4.0 mi NNE 11.5 mph 23.0 mph N/A   Overcast
2:15 AM 73.4 °F 71.6 °F 94% 29.96 in 8.0 mi NNE 16.1 mph 24.2 mph N/A   Overcast
2:35 AM 73.4 °F 71.6 °F 94% 29.96 in 8.0 mi NE 16.1 mph - N/A   Overcast
2:55 AM 73.4 °F 71.6 °F 94% 29.96 in 10.0 mi NE 13.8 mph - N/A   Overcast
3:15 AM 73.4 °F 71.6 °F 94% 29.95 in 10.0 mi NNE 13.8 mph - N/A   Scattered Clouds
3:35 AM 75.2 °F 71.6 °F 89% 29.95 in 10.0 mi NNE 9.2 mph 16.1 mph N/A   Scattered Clouds
3:55 AM 75.2 °F 73.4 °F 94% 29.94 in 10.0 mi NNE 12.7 mph 20.7 mph N/A   Mostly Cloudy
4:15 AM 75.2 °F 73.4 °F 94% 29.94 in 10.0 mi NNE 15.0 mph - N/A   Scattered Clouds
4:35 AM 75.2 °F 73.4 °F 94% 29.94 in 10.0 mi NNE 16.1 mph - N/A   Mostly Cloudy
4:55 AM 77.0 °F 73.4 °F 89% 29.94 in 9.0 mi NNE 15.0 mph - N/A   Overcast
5:15 AM 75.2 °F 71.6 °F 89% 29.94 in 10.0 mi NNE 17.3 mph - N/A   Mostly Cloudy
5:35 AM 75.2 °F 71.6 °F 89% 29.94 in 9.0 mi NNE 19.6 mph - N/A   Mostly Cloudy
5:55 AM 75.2 °F 71.6 °F 89% 29.94 in 9.0 mi NNE 18.4 mph - N/A   Mostly Cloudy
6:15 AM 75.2 °F 71.6 °F 89% 29.95 in 8.0 mi NNE 18.4 mph 26.5 mph N/A   Mostly Cloudy
6:35 AM 75.2 °F 71.6 °F 89% 29.96 in 9.0 mi NE 20.7 mph - N/A   Mostly Cloudy
6:55 AM 75.2 °F 71.6 °F 89% 29.96 in 7.0 mi NNE 18.4 mph 26.5 mph N/A   Mostly Cloudy
7:15 AM 75.2 °F 71.6 °F 89% 29.97 in 8.0 mi NE 24.2 mph - N/A   Scattered Clouds
7:35 AM 75.2 °F 71.6 °F 89% 29.98 in 7.0 mi NNE 18.4 mph 25.3 mph N/A   Mostly Cloudy
7:55 AM 75.2 °F 71.6 °F 89% 29.99 in 7.0 mi NNE 15.0 mph 25.3 mph N/A   Mostly Cloudy
8:15 AM 75.2 °F 69.8 °F 83% 29.99 in 7.0 mi NNE 19.6 mph - N/A   Mostly Cloudy
8:35 AM 75.2 °F 69.8 °F 83% 30.00 in - NE 21.9 mph - N/A   Overcast
8:55 AM 75.2 °F 69.8 °F 83% 30.00 in 8.0 mi NNE 17.3 mph 25.3 mph N/A   Mostly Cloudy
9:15 AM 75.2 °F 69.8 °F 83% 30.00 in 9.0 mi NNE 19.6 mph - N/A   Partly Cloudy
9:35 AM 75.2 °F 69.8 °F 83% 30.01 in 8.0 mi NE 19.6 mph - N/A   Clear
9:55 AM 77.0 °F 71.6 °F 83% 30.01 in 7.0 mi NE 19.6 mph - N/A   Clear
10:15 AM 77.0 °F 71.6 °F 83% 30.01 in 6.0 mi NNE 18.4 mph - N/A   Haze
10:35 AM 75.2 °F 69.8 °F 83% 30.00 in 7.0 mi NNE 19.6 mph 26.5 mph N/A   Clear
10:55 AM 75.2 °F 71.6 °F 89% 30.00 in 7.0 mi NNE 18.4 mph 25.3 mph N/A   Clear
11:15 AM 75.2 °F 69.8 °F 83% 30.00 in 6.0 mi NNE 15.0 mph 24.2 mph N/A   Haze
11:35 AM 75.2 °F 69.8 °F 83% 29.99 in 6.0 mi NNE 11.5 mph 23.0 mph N/A   Haze
11:55 AM 75.2 °F 69.8 °F 83% 29.98 in 7.0 mi NNE 13.8 mph - N/A   Scattered Clouds
12:15 PM 75.2 °F 69.8 °F 83% 29.97 in 7.0 mi NNE 13.8 mph 23.0 mph N/A   Clear
12:35 PM 75.2 °F 69.8 °F 83% 29.96 in 7.0 mi NNE 12.7 mph 19.6 mph N/A   Partly Cloudy
12:55 PM 75.2 °F 69.8 °F 83% 29.96 in 7.0 mi NNE 11.5 mph 19.6 mph N/A   Clear
1:15 PM 75.2 °F 69.8 °F 83% 29.95 in 7.0 mi NNE 13.8 mph 23.0 mph N/A   Mostly Cloudy
1:35 PM 75.2 °F 69.8 °F 83% 29.94 in 7.0 mi NE 18.4 mph - N/A   Mostly Cloudy
1:55 PM 75.2 °F 69.8 °F 83% 29.94 in 8.0 mi NNE 17.3 mph - N/A   Mostly Cloudy
2:15 PM 75.2 °F 69.8 °F 83% 29.93 in 8.0 mi NNE 18.4 mph - N/A   Mostly Cloudy
2:35 PM 75.2 °F 69.8 °F 83% 29.92 in 7.0 mi NE 21.9 mph - N/A   Mostly Cloudy
2:55 PM 75.2 °F 69.8 °F 83% 29.91 in 7.0 mi NE 20.7 mph - N/A   Mostly Cloudy
3:15 PM 75.2 °F 69.8 °F 83% 29.92 in 7.0 mi NNE 19.6 mph 26.5 mph N/A   Scattered Clouds
3:35 PM 75.2 °F 69.8 °F 83% 29.91 in 7.0 mi NE 19.6 mph - N/A   Partly Cloudy
3:55 PM 75.2 °F 69.8 °F 83% 29.91 in 7.0 mi NE 21.9 mph - N/A   Partly Cloudy
4:15 PM 75.2 °F 69.8 °F 83% 29.91 in 7.0 mi NE 21.9 mph - N/A   Scattered Clouds
4:35 PM 75.2 °F 69.8 °F 83% 29.92 in 6.0 mi NE 21.9 mph - N/A   Haze
4:55 PM 75.2 °F 69.8 °F 83% 29.92 in 6.0 mi NE 23.0 mph - N/A   Haze
5:15 PM 75.2 °F 69.8 °F 83% 29.92 in 7.0 mi NE 25.3 mph - N/A   Scattered Clouds
5:35 PM 75.2 °F 69.8 °F 83% 29.92 in 7.0 mi NE 25.3 mph - N/A   Partly Cloudy
5:55 PM 75.2 °F 69.8 °F 83% 29.92 in 7.0 mi NE 29.9 mph - N/A   Scattered Clouds
6:15 PM 75.2 °F 69.8 °F 83% 29.92 in 10.0 mi NE 26.5 mph - N/A   Mostly Cloudy
6:35 PM 75.2 °F 69.8 °F 83% 29.92 in 10.0 mi NE 29.9 mph - N/A   Mostly Cloudy
6:55 PM 75.2 °F 69.8 °F 83% 29.93 in 9.0 mi NE 27.6 mph - N/A   Mostly Cloudy
7:15 PM 75.2 °F 69.8 °F 83% 29.93 in 8.0 mi NE 27.6 mph - N/A   Mostly Cloudy
7:35 PM 75.2 °F 69.8 °F 83% 29.94 in 9.0 mi NE 25.3 mph - N/A   Mostly Cloudy
7:55 PM 75.2 °F 69.8 °F 83% 29.94 in 9.0 mi NE 26.5 mph - N/A   Mostly Cloudy
8:15 PM 75.2 °F 69.8 °F 83% 29.94 in 10.0 mi NE 24.2 mph - N/A   Mostly Cloudy
8:35 PM 75.2 °F 69.8 °F 83% 29.94 in 10.0 mi NE 24.2 mph - N/A   Mostly Cloudy
8:55 PM 75.2 °F 69.8 °F 83% 29.94 in 10.0 mi NE 24.2 mph - N/A   Mostly Cloudy
9:15 PM 75.2 °F 69.8 °F 83% 29.94 in 10.0 mi NE 24.2 mph - N/A   Overcast
9:35 PM 75.2 °F 69.8 °F 83% 29.94 in 10.0 mi NE 25.3 mph - N/A   Mostly Cloudy
9:55 PM 75.2 °F 69.8 °F 83% 29.94 in - NE 23.0 mph - N/A   Overcast
10:15 PM 75.2 °F 69.8 °F 83% 29.94 in 9.0 mi NE 25.3 mph - N/A   Mostly Cloudy
10:35 PM 75.2 °F 69.8 °F 83% 29.93 in 9.0 mi NE 26.5 mph - N/A   Overcast
10:55 PM 75.2 °F 69.8 °F 83% 29.94 in 8.0 mi NE 24.2 mph 29.9 mph N/A   Mostly Cloudy
11:15 PM 75.2 °F 69.8 °F 83% 29.94 in 9.0 mi NE 25.3 mph - N/A   Overcast
11:35 PM 75.2 °F 69.8 °F 83% 29.94 in 9.0 mi NE 25.3 mph - N/A   Overcast
11:55 PM 75.2 °F 69.8 °F 83% 29.94 in 8.0 mi NE 25.3 mph - N/A   Overcast